Hourly Data Report for August 23, 2003

SHERBROOKE A
QUEBEC

45°26'00.000" N
71°41'00.000" W
241.40 m
7028124
71610
YSC

Download Data

Hourly Data (August 2003)
Hourly Data Report for August 23, 2003
TIME
LST
Temp Definition
°C
Dew Point Definition
°C
Rel Hum Definition
%
Precip. Amount Definition
mm

Wind Dir Definition
10's deg

Wind Spd Definition
km/h
Visibility Definition
km
Stn Press Definition
kPa
Hmdx Definition


Wind Chill Definition


Weather Definition


00:00 15.4 12.3 82   23 9 15.0 97.88      
01:00 16.7 12.4 76   26 13 15.0 97.86      
02:00 16.2 12.1 77   28 17 15.0 97.89      
03:00 15.0 11.5 80   28 11 15.0 97.91      
04:00 13.4 10.4 82   29 15 15.0 97.93      
05:00 12.4 8.9 79   23 11 15.0 98.01      
06:00 13.5 8.6 72   25 13 15.0 98.04      
07:00 15.2 8.3 63   27 22 24.1 98.07     Mainly Clear
08:00 16.2 7.1 55   28 33 24.1 98.09     Mainly Clear
09:00 16.8 7.1 53   28 28 24.1 98.07     Mainly Clear
10:00 17.7 6.9 49   28 32 24.1 98.09     Mainly Clear
11:00 18.1 6.9 48   28 35 24.1 98.07     Mainly Clear
12:00 19.2 8.0 48   28 26 24.1 98.05     Mostly Cloudy
13:00 18.2 6.5 46   28 28 24.1 98.06     Mostly Cloudy
14:00 19.1 5.5 41   29 35 24.1 98.01     Mostly Cloudy
15:00 16.5 5.9 49   32 26 24.1 98.12     Mostly Cloudy
16:00 13.2 6.7 65   2 11 24.1 98.28     Mostly Cloudy
17:00 12.6 6.4 66   36 6 15.0 98.33      
18:00 12.5 6.6 67   35 7 15.0 98.36      
19:00 11.2 6.2 71   31 6 15.0 98.40      
20:00 10.4 7.0 79     0 15.0 98.48      
21:00 7.2 5.4 88     0 15.0 98.49      
22:00 5.9 4.6 91     0 15.0 98.48      
23:00 6.6 5.7 94     0 15.0 98.46      

Notes on Data Quality.

Legend

  • E = Estimated
  • M = Missing
  • NA = Not Available*
  • [empty] = Indicates an unobserved value
Date modified: